FW6365 Weather Reports


Display with metric or nautical units.
time (UTC)temp
F
wind
direction
speed
MPH
gust
MPH
rain 1hr
in
rain 24hr
in
rain mn
in
humidity
%
barometer
mb
20260510145027 51 49 0.0 2.0 0.00 0.00 0.00 95 1018.2
20260510144556 51 33 0.0 1.0 0.00 0.00 0.00 95 1018.3
20260510144026 50 280 0.0 1.0 0.00 0.00 0.00 95 1018.6
20260510143526 50 342 0.0 2.0 0.00 0.00 0.00 95 1018.6
20260510143044 50 342 1.0 2.0 0.00 0.00 0.00 95 1018.1
20260510142525 50 309 0.0 2.0 0.00 0.00 0.00 95 1018.2
20260510142026 50 309 0.0 2.0 0.00 0.00 0.00 94 1018.3
20260510141541 50 314 1.0 2.0 0.00 0.00 0.00 94 1018.2
20260510141028 50 11 0.0 1.0 0.00 0.00 0.00 95 1018.0
20260510140526 49 11 0.0 2.0 0.00 0.00 0.00 95 1017.9
20260510140040 48 351 0.0 2.0 0.00 0.00 0.00 95 1018.0
20260510135525 48 331 0.0 2.0 0.00 0.00 0.00 95 1018.2
20260510135025 48 9 0.0 1.0 0.00 0.00 0.00 95 1018.2
20260510134632 48 142 0.0 1.0 0.00 0.00 0.00 95 1018.3
20260510134025 48 109 0.0 1.0 0.00 0.00 0.00 95 1018.4
20260510133526 48 0 0.0 1.0 0.00 0.00 0.00 95 1018.4
20260510133039 48 317 0.0 2.0 0.00 0.00 0.00 95 1018.5
20260510132525 48 0 0.0 2.0 0.00 0.00 0.00 95 1018.3
20260510132025 48 309 1.0 3.0 0.00 0.00 0.00 95 1018.0
20260510131541 48 306 1.0 3.0 0.00 0.00 0.00 93 1017.8
20260510131025 48 298 2.0 3.0 0.00 0.00 0.00 93 1017.9
20260510130526 49 0 0.0 0.0 0.00 0.00 0.00 94 1017.8
20260510130041 49 0 0.0 3.0 0.00 0.00 0.00 94 1017.8
20260510125526 49 0 0.0 5.0 0.00 0.00 0.00 94 1017.9
20260510125028 49 163 1.0 5.0 0.00 0.00 0.00 94 1018.0
20260510124546 49 136 1.0 5.0 0.00 0.00 0.00 94 1018.0
20260510124025 49 153 2.0 5.0 0.00 0.00 0.00 94 1018.1
20260510123527 49 164 3.0 5.0 0.00 0.00 0.00 94 1018.1
20260510123040 49 169 3.0 7.0 0.00 0.00 0.00 94 1018.0
20260510122525 49 164 4.0 7.0 0.00 0.00 0.00 94 1018.1
20260510122025 49 169 3.0 7.0 0.00 0.00 0.00 95 1018.2
20260510121539 49 190 4.0 8.0 0.00 0.00 0.00 95 1018.3
20260510121025 49 178 4.0 8.0 0.00 0.00 0.00 95 1018.3
20260510120529 49 180 3.0 7.0 0.00 0.00 0.00 94 1018.3
20260510120041 49 160 4.0 7.0 0.00 0.00 0.00 95 1018.1
20260510115525 49 177 4.0 7.0 0.00 0.00 0.00 95 1018.2
20260510115027 49 175 3.0 7.0 0.00 0.00 0.00 95 1018.2
20260510114542 49 163 4.0 7.0 0.00 0.00 0.00 95 1018.1
20260510114025 49 162 4.0 7.0 0.00 0.00 0.00 95 1017.8
20260510113525 49 145 4.0 8.0 0.00 0.00 0.00 95 1017.8
20260510113041 49 196 3.0 8.0 0.00 0.00 0.00 95 1017.9
20260510112525 49 165 3.0 7.0 0.00 0.00 0.00 95 1017.9
20260510112026 49 183 3.0 5.0 0.00 0.00 0.00 95 1017.8
20260510111553 49 160 3.0 7.0 0.00 0.00 0.00 95 1017.8
20260510111026 49 137 3.0 7.0 0.00 0.00 0.00 95 1017.7
20260510110525 49 159 4.0 7.0 0.00 0.00 0.00 95 1017.7
20260510110040 49 182 4.0 6.0 0.00 0.00 0.00 95 1017.5
20260510105525 49 147 4.0 5.0 0.00 0.00 0.00 95 1017.4
20260510105025 49 148 3.0 7.0 0.00 0.00 0.00 95 1017.7
20260510104549 49 188 3.0 7.0 0.00 0.00 0.00 96 1017.9
20260510104025 48 155 2.0 6.0 0.00 0.00 0.00 95 1018.2
20260510103525 48 196 3.0 7.0 0.00 0.00 0.00 96 1017.9
20260510103045 48 161 3.0 7.0 0.00 0.00 0.00 96 1017.6
20260510102525 48 152 4.0 7.0 0.00 0.00 0.00 96 1017.6
20260510102026 48 148 2.0 4.0 0.00 0.00 0.00 96 1017.5
20260510101542 48 146 2.0 5.0 0.00 0.00 0.00 96 1017.4
20260510101024 48 158 1.0 5.0 0.00 0.00 0.00 96 1017.3
20260510100525 48 175 3.0 5.0 0.00 0.00 0.00 96 1017.2
20260510100041 48 164 2.0 4.0 0.00 0.00 0.00 95 1017.0
20260510095525 48 163 2.0 4.0 0.00 0.00 0.00 95 1017.0
20260510095024 49 118 2.0 4.0 0.00 0.00 0.00 95 1017.0
20260510094542 49 142 2.0 6.0 0.00 0.00 0.00 96 1017.2
20260510094024 49 148 3.0 6.0 0.00 0.00 0.00 96 1017.1
20260510093525 49 197 2.0 4.0 0.00 0.00 0.00 96 1017.2
20260510093040 49 131 2.0 4.0 0.00 0.00 0.00 97 1017.2
20260510092526 48 112 2.0 3.0 0.00 0.00 0.00 97 1017.2
20260510092026 48 125 2.0 3.0 0.00 0.00 0.00 97 1017.2
20260510091539 48 126 1.0 2.0 0.00 0.00 0.00 97 1017.3
20260510091025 48 140 0.0 2.0 0.00 0.00 0.00 97 1017.3
20260510090525 48 130 1.0 2.0 0.00 0.00 0.00 97 1017.2
20260510090039 47 128 0.0 2.0 0.00 0.00 0.00 97 1017.2
20260510085528 47 0 0.0 4.0 0.00 0.00 0.00 96 1017.3
20260510085022 47 112 2.0 4.0 0.00 0.00 0.00 97 1017.1
20260510084543 48 200 2.0 2.0 0.00 0.00 0.00 98 1017.1
20260510084023 47 161 0.0 2.0 0.00 0.00 0.00 98 1017.2
20260510083527 45 108 0.0 1.0 0.00 0.00 0.00 96 1017.1
20260510083041 45 0 0.0 2.0 0.00 0.00 0.00 96 1017.0
20260510082522 46 0 0.0 2.0 0.00 0.00 0.00 96 1017.0
20260510082022 46 108 1.0 1.0 0.00 0.00 0.00 96 1016.9
20260510081543 46 0 0.0 1.0 0.00 0.00 0.00 96 1016.9
20260510081022 46 134 0.0 1.0 0.00 0.00 0.00 95 1016.8
20260510080527 46 0 0.0 1.0 0.00 0.00 0.00 96 1016.9
20260510080042 46 0 0.0 1.0 0.00 0.00 0.00 96 1016.9
20260510075525 46 0 0.0 0.0 0.00 0.00 0.00 95 1016.8
20260510075023 47 0 0.0 1.0 0.00 0.00 0.00 95 1016.7
20260510074540 47 0 0.0 1.0 0.00 0.00 0.00 95 1016.7
20260510074024 48 134 1.0 2.0 0.00 0.00 0.00 96 1016.7
20260510073530 48 117 1.0 2.0 0.00 0.00 0.00 97 1016.7
20260510073044 47 109 0.0 1.0 0.00 0.00 0.00 95 1016.7
20260510072525 47 0 0.0 1.0 0.00 0.00 0.00 96 1016.7
20260510072024 47 109 0.0 0.0 0.00 0.00 0.00 96 1016.6
20260510071542 47 0 0.0 1.0 0.00 0.00 0.00 95 1016.6
20260510071024 47 0 0.0 1.0 0.00 0.00 0.00 95 1016.6
20260510070525 47 0 0.0 1.0 0.00 0.00 0.00 95 1016.6
20260510070044 47 0 0.0 1.0 0.00 0.00 0.00 95 1016.6
20260510065524 47 0 0.0 2.0 0.00 0.00 0.00 95 1016.5
20260510065023 47 0 0.0 2.0 0.00 0.00 0.00 95 1016.5
20260510064540 48 109 0.0 2.0 0.00 0.00 0.00 95 1016.5
20260510064023 48 0 0.0 1.0 0.00 0.00 0.00 95 1016.6
20260510063522 48 0 0.0 1.0 0.00 0.00 0.00 95 1016.6
20260510063041 48 19 0.0 0.0 0.00 0.00 0.00 95 1016.6
20260510062525 48 0 0.0 0.0 0.00 0.00 0.00 95 1016.6
20260510062025 48 19 0.0 0.0 0.00 0.00 0.00 94 1016.7
20260510061541 48 0 0.0 0.0 0.00 0.00 0.00 94 1016.6
20260510061025 48 0 0.0 0.0 0.00 0.00 0.00 93 1016.7
20260510060525 49 0 0.0 0.0 0.00 0.00 0.00 93 1016.7
20260510060047 49 0 0.0 0.0 0.00 0.00 0.00 93 1016.7
20260510055525 49 0 0.0 0.0 0.00 0.00 0.00 93 1016.7
20260510055024 50 0 0.0 0.0 0.00 0.00 0.00 93 1016.8
20260510054541 50 0 0.0 0.0 0.00 0.00 0.00 93 1016.8
20260510054023 50 0 0.0 1.0 0.00 0.00 0.00 93 1016.8
20260510053522 50 0 0.0 1.0 0.00 0.00 0.00 93 1016.7
20260510053042 50 0 0.0 1.0 0.00 0.00 0.00 93 1016.7
20260510052526 50 17 0.0 1.0 0.00 0.00 0.00 92 1016.7
20260510052025 50 0 0.0 0.0 0.00 0.00 0.00 91 1016.7
20260510051559 50 0 0.0 0.0 0.00 0.00 0.00 90 1016.6
20260510051024 51 0 0.0 0.0 0.00 0.00 0.00 90 1016.7
20260510050522 51 0 0.0 0.0 0.00 0.00 0.00 88 1016.6
20260510050042 51 0 0.0 0.0 0.00 0.00 0.00 88 1016.6
20260510045526 52 0 0.0 0.0 0.00 0.00 0.00 88 1016.6
20260510045025 52 0 0.0 0.0 0.00 0.00 0.00 88 1016.5
20260510044542 53 0 0.0 0.0 0.00 0.00 0.00 87 1016.5
20260510044027 54 0 0.0 0.0 0.00 0.00 0.00 87 1016.5
20260510043525 54 0 0.0 0.0 0.00 0.00 0.00 86 1016.6
20260510043102 54 0 0.0 0.0 0.00 0.00 0.00 85 1016.5
20260510042528 55 0 0.0 1.0 0.00 0.00 0.00 83 1016.4
20260510042027 55 0 0.0 1.0 0.00 0.00 0.00 84 1016.5
20260510041550 56 16 0.0 1.0 0.00 0.00 0.00 85 1016.4
20260510041028 56 0 0.0 1.0 0.00 0.00 0.00 84 1016.5
20260510040528 56 16 0.0 1.0 0.00 0.00 0.00 84 1016.3
20260510040043 57 0 0.0 1.0 0.00 0.00 0.00 83 1016.3
20260510035527 58 0 0.0 1.0 0.00 0.00 0.00 81 1016.3
20260510035029 58 0 0.0 1.0 0.00 0.00 0.00 80 1016.2
20260510034544 58 0 0.0 1.0 0.00 0.00 0.00 81 1016.3
20260510034028 59 0 0.0 0.0 0.00 0.00 0.00 80 1016.3
20260510033526 59 0 0.0 0.0 0.00 0.00 0.00 80 1016.4
20260510033042 60 0 0.0 0.0 0.00 0.00 0.00 76 1016.3
20260510032527 61 0 0.0 0.0 0.00 0.00 0.00 76 1016.4
20260510032026 62 0 0.0 0.0 0.00 0.00 0.00 76 1016.3
20260510031608 62 0 0.0 0.0 0.00 0.00 0.00 75 1016.2
20260510031027 63 0 0.0 0.0 0.00 0.00 0.00 73 1016.2
20260510030531 63 16 0.0 0.0 0.00 0.00 0.00 72 1016.2
20260510030040 64 0 0.0 0.0 0.00 0.00 0.00 71 1016.2
20260510025528 65 0 0.0 0.0 0.00 0.00 0.00 70 1016.2
20260510025030 66 0 0.0 0.0 0.00 0.00 0.00 68 1016.3
20260510024545 66 0 0.0 0.0 0.00 0.00 0.00 67 1016.1
20260510024026 67 0 0.0 0.0 0.00 0.00 0.00 62 1016.1
20260510023527 67 0 0.0 0.0 0.00 0.00 0.00 62 1016.1
20260510023051 68 0 0.0 1.0 0.00 0.00 0.00 62 1016.2
20260510022529 68 0 0.0 2.0 0.00 0.00 0.00 60 1016.3
20260510022028 68 16 0.0 2.0 0.00 0.00 0.00 57 1016.2
20260510021544 68 0 1.0 2.0 0.00 0.00 0.00 56 1016.3
20260510021026 69 40 0.0 2.0 0.00 0.00 0.00 57 1016.4
20260510020526 69 59 1.0 4.0 0.00 0.00 0.00 56 1016.3
20260510020042 69 0 1.0 5.0 0.00 0.00 0.00 57 1016.4
20260510015526 69 52 1.0 5.0 0.00 0.00 0.00 54 1016.5
20260510015026 69 15 2.0 5.0 0.00 0.00 0.00 56 1016.5
20260510014544 70 41 0.0 2.0 0.00 0.00 0.00 59 1016.6
20260510014026 70 35 0.0 2.0 0.00 0.00 0.00 56 1016.7
20260510013527 70 53 0.0 3.0 0.00 0.00 0.00 58 1016.8
20260510013043 70 0 1.0 5.0 0.00 0.00 0.00 58 1016.7
20260510012528 70 22 1.0 5.0 0.00 0.00 0.00 58 1016.8
20260510012027 69 347 2.0 4.0 0.00 0.00 0.00 57 1016.8
20260510011554 69 18 2.0 4.0 0.00 0.00 0.00 55 1017.0
20260510011030 70 322 1.0 4.0 0.00 0.00 0.00 56 1017.1
20260510010526 70 0 0.0 3.0 0.00 0.00 0.00 59 1017.1
20260510010050 70 323 1.0 7.0 0.00 0.00 0.00 56 1017.2
20260510005527 70 103 2.0 7.0 0.00 0.00 0.00 60 1017.1
20260510005026 70 17 0.0 5.0 0.00 0.00 0.00 60 1017.3
20260510004540 70 130 1.0 5.0 0.00 0.00 0.00 59 1017.3
20260510004030 70 92 1.0 8.0 0.00 0.00 0.00 59 1017.3
20260510003529 70 5 3.0 8.0 0.00 0.00 0.00 59 1017.4
20260510003041 70 338 3.0 8.0 0.00 0.00 0.00 58 1017.4
20260510002528 70 59 1.0 4.0 0.00 0.00 0.00 59 1017.4
20260510002029 70 46 2.0 8.0 0.00 0.00 0.00 60 1017.3
20260510001544 70 26 3.0 8.0 0.00 0.00 0.00 59 1017.5
20260510001026 70 78 3.0 8.0 0.00 0.00 0.00 58 1017.3
20260510000526 70 61 3.0 7.0 0.00 0.00 0.00 59 1017.4
20260510000049 70 30 2.0 9.0 0.00 0.00 0.00 59 1017.6
20260509235530 70 341 3.0 9.0 0.00 0.00 0.00 57 1017.6
20260509235027 71 17 4.0 9.0 0.00 0.00 0.00 57 1017.7
20260509234542 71 116 3.0 8.0 0.00 0.00 0.00 58 1017.6
20260509234029 71 110 2.0 8.0 0.00 0.00 0.00 59 1017.7
20260509233526 71 102 2.0 6.0 0.00 0.00 0.00 57 1017.7
20260509233041 71 54 1.0 4.0 0.00 0.00 0.00 60 1017.9
20260509232527 71 122 1.0 4.0 0.00 0.00 0.00 57 1017.9
20260509232028 70 121 2.0 7.0 0.00 0.00 0.00 60 1017.9
20260509231546 70 333 2.0 9.0 0.00 0.00 0.00 59 1017.9
20260509231026 70 327 4.0 9.0 0.00 0.00 0.00 58 1018.0
20260509230526 71 346 4.0 9.0 0.00 0.00 0.00 57 1018.2
20260509230042 71 13 0.0 9.0 0.00 0.00 0.00 59 1018.3
20260509225526 71 15 3.0 9.0 0.00 0.00 0.00 58 1018.3
20260509225024 71 34 3.0 9.0 0.00 0.00 0.00 57 1018.4
20260509224539 70 119 1.0 9.0 0.00 0.00 0.00 60 1018.4
20260509224025 70 17 4.0 10.0 0.00 0.00 0.00 59 1018.6
20260509223524 70 93 2.0 10.0 0.00 0.00 0.00 59 1018.4
20260509223044 71 50 4.0 10.0 0.00 0.00 0.00 59 1018.6
20260509222524 70 325 3.0 10.0 0.00 0.00 0.00 60 1018.5
20260509222024 70 355 1.0 9.0 0.00 0.00 0.00 61 1018.7
20260509221543 70 340 2.0 8.0 0.00 0.00 0.00 60 1018.7
20260509221025 70 327 5.0 10.0 0.00 0.00 0.00 58 1018.8
20260509220524 70 340 2.0 10.0 0.00 0.00 0.00 60 1018.9
20260509220046 70 17 2.0 10.0 0.00 0.00 0.00 60 1019.0
20260509215528 70 302 1.0 5.0 0.00 0.00 0.00 63 1019.1
20260509215025 70 20 2.0 8.0 0.00 0.00 0.00 59 1019.1
20260509214541 70 142 1.0 8.0 0.00 0.00 0.00 60 1019.1
20260509214024 69 46 2.0 5.0 0.00 0.00 0.00 62 1019.3
20260509213524 69 228 1.0 5.0 0.00 0.00 0.00 65 1019.4
20260509213057 68 308 2.0 9.0 0.00 0.00 0.00 60 1019.4
20260509212524 69 335 4.0 9.0 0.00 0.00 0.00 60 1019.5
20260509212025 68 327 3.0 6.0 0.00 0.00 0.00 62 1019.5
20260509211606 69 317 2.0 6.0 0.00 0.00 0.00 60 1019.6
20260509211024 68 344 1.0 4.0 0.00 0.00 0.00 60 1019.5
20260509210525 68 21 2.0 5.0 0.00 0.00 0.00 62 1019.5
20260509210048 68 313 3.0 5.0 0.00 0.00 0.00 62 1019.6
20260509205525 68 32 1.0 5.0 0.00 0.00 0.00 61 1019.6
20260509205025 67 0 0.0 5.0 0.00 0.00 0.00 64 1019.7
20260509204557 67 315 2.0 7.0 0.00 0.00 0.00 63 1019.8
20260509204028 67 348 3.0 7.0 0.00 0.00 0.00 63 1019.9
20260509203524 67 291 1.0 4.0 0.00 0.00 0.00 63 1020.0
20260509203049 67 185 2.0 7.0 0.00 0.00 0.00 63 1020.0
20260509202528 67 119 1.0 7.0 0.00 0.00 0.00 63 1019.9
20260509202025 67 28 2.0 6.0 0.00 0.00 0.00 66 1019.9
20260509201540 67 90 3.0 6.0 0.00 0.00 0.00 63 1019.9
20260509201028 67 171 2.0 7.0 0.00 0.00 0.00 66 1020.2
20260509200526 66 25 3.0 8.0 0.00 0.00 0.00 68 1020.2
20260509200041 66 12 3.0 8.0 0.00 0.00 0.00 66 1020.4
20260509195526 66 302 4.0 7.0 0.00 0.00 0.00 66 1020.4
20260509195026 66 288 2.0 8.0 0.00 0.00 0.00 66 1020.4
20260509194543 66 0 2.0 8.0 0.00 0.00 0.00 68 1020.4
20260509194026 66 40 4.0 8.0 0.00 0.00 0.00 68 1020.5
20260509193530 66 58 2.0 9.0 0.00 0.00 0.00 68 1020.4
20260509193045 66 219 0.0 9.0 0.00 0.00 0.00 70 1020.5
20260509192527 65 319 5.0 9.0 0.00 0.00 0.00 68 1020.6
20260509192027 65 307 1.0 8.0 0.00 0.00 0.00 67 1020.8
20260509191542 65 321 4.0 8.0 0.00 0.00 0.00 67 1020.8
20260509191030 65 321 4.0 11.0 0.00 0.00 0.00 69 1020.9
20260509190526 65 304 2.0 11.0 0.00 0.00 0.00 68 1020.9
20260509190047 65 26 5.0 11.0 0.00 0.00 0.00 68 1020.9
20260509185526 65 129 1.0 11.0 0.00 0.00 0.00 68 1020.9
20260509185026 64 22 4.0 11.0 0.00 0.00 0.00 70 1020.9
20260509184540 64 298 4.0 8.0 0.00 0.00 0.00 70 1021.0
20260509184027 65 331 2.0 6.0 0.00 0.00 0.00 70 1021.0
20260509183531 65 284 2.0 5.0 0.00 0.00 0.00 69 1021.0
20260509183041 64 89 1.0 6.0 0.00 0.00 0.00 72 1021.0
20260509182526 64 103 2.0 6.0 0.00 0.00 0.00 71 1021.1
20260509182026 64 306 1.0 7.0 0.00 0.00 0.00 72 1021.2
20260509181540 64 321 1.0 7.0 0.00 0.00 0.00 73 1021.0
20260509181027 64 300 0.0 7.0 0.00 0.00 0.00 74 1021.1
20260509180527 63 49 2.0 7.0 0.00 0.00 0.00 71 1021.3
20260509180040 63 313 0.0 5.0 0.00 0.00 0.00 74 1021.2
20260509175526 63 26 2.0 5.0 0.00 0.00 0.00 74 1021.1
20260509175026 62 89 2.0 10.0 0.00 0.00 0.00 75 1021.2
20260509174541 62 312 2.0 10.0 0.00 0.00 0.00 75 1021.3
20260509174030 61 15 4.0 9.0 0.00 0.00 0.00 77 1021.2
20260509173525 61 319 4.0 7.0 0.00 0.00 0.00 76 1021.4
20260509173041 60 32 3.0 7.0 0.00 0.00 0.00 78 1021.3
20260509172529 60 352 3.0 8.0 0.00 0.00 0.00 78 1021.5
20260509172025 60 322 4.0 8.0 0.00 0.00 0.00 80 1021.5
20260509171541 60 340 4.0 13.0 0.00 0.00 0.00 79 1021.5
20260509171026 60 315 3.0 13.0 0.00 0.00 0.00 80 1021.6
20260509170526 60 63 5.0 13.0 0.00 0.00 0.00 81 1021.7
20260509170041 59 194 1.0 5.0 0.00 0.00 0.00 82 1021.7
20260509165527 59 310 2.0 9.0 0.00 0.00 0.00 81 1021.7
20260509165026 58 38 4.0 9.0 0.00 0.00 0.00 82 1021.7
20260509164540 58 336 3.0 5.0 0.00 0.00 0.00 84 1021.7
20260509164027 58 318 2.0 7.0 0.00 0.00 0.00 83 1021.7
20260509163526 57 19 2.0 7.0 0.00 0.00 0.00 86 1021.8
20260509163050 57 306 4.0 7.0 0.00 0.00 0.00 85 1021.8
20260509162526 57 311 2.0 8.0 0.00 0.00 0.00 87 1021.9
20260509162026 56 278 2.0 8.0 0.00 0.00 0.00 88 1022.0
20260509161542 55 321 2.0 4.0 0.00 0.00 0.00 88 1022.1
20260509161031 55 317 1.0 5.0 0.00 0.00 0.00 89 1022.0
20260509160526 55 11 2.0 5.0 0.00 0.00 0.00 89 1022.1
20260509160041 55 23 1.0 5.0 0.00 0.00 0.00 90 1022.1
20260509155525 54 0 1.0 5.0 0.00 0.00 0.00 92 1022.1
20260509155029 54 352 2.0 5.0 0.00 0.00 0.00 92 1022.3
20260509154542 53 302 2.0 6.0 0.00 0.00 0.00 93 1022.4
20260509154026 53 299 2.0 7.0 0.00 0.00 0.00 94 1022.3
20260509153525 53 12 1.0 8.0 0.00 0.00 0.00 96 1022.4
20260509153038 52 338 3.0 8.0 0.00 0.00 0.00 96 1022.4
20260509152526 52 336 1.0 5.0 0.00 0.00 0.00 97 1022.4
20260509152027 51 34 2.0 5.0 0.00 0.00 0.00 97 1022.6
20260509151541 50 304 0.0 2.0 0.00 0.00 0.00 98 1022.7
20260509151026 50 284 1.0 2.0 0.00 0.00 0.00 98 1022.6
20260509150529 49 313 0.0 3.0 0.00 0.00 0.00 98 1022.8
20260509150049 49 313 1.0 3.0 0.00 0.00 0.00 97 1022.8
20260509145526 48 325 1.0 2.0 0.00 0.00 0.00 97 1022.7